Time,TemperatureF,DewpointF,PressureIn,WindDirection,WindDirectionDegrees,WindSpeedMPH,WindSpeedGustMPH,Humidity,HourlyPrecipIn,Conditions,Clouds,dailyrainin,SoftwareType,DateUTC
2013-09-18 00:06:00,77.2,61.7,30.04,South,180,0.0,-999.0,59,0.00,,,0.00,open2300 v1.10,2013-09-18 05:06:00,
2013-09-18 00:11:00,77.2,62.2,30.04,South,180,0.0,-999.0,60,0.00,,,0.00,open2300 v1.10,2013-09-18 05:11:00,
2013-09-18 00:16:00,77.2,62.2,30.05,SSW,202,0.9,-999.0,60,0.00,,,0.00,open2300 v1.10,2013-09-18 05:16:00,
2013-09-18 00:21:00,77.0,62.1,30.04,SSW,202,0.0,-999.0,60,0.00,,,0.00,open2300 v1.10,2013-09-18 05:21:00,
2013-09-18 00:26:00,77.2,62.2,30.05,SSW,202,0.0,-999.0,60,0.00,,,0.00,open2300 v1.10,2013-09-18 05:26:00,
2013-09-18 00:31:00,77.2,62.2,30.05,SW,225,0.9,-999.0,60,0.00,,,0.00,open2300 v1.10,2013-09-18 05:31:00,
2013-09-18 00:37:00,77.2,62.2,30.05,SSW,202,0.0,-999.0,60,0.00,,,0.00,open2300 v1.10,2013-09-18 05:37:00,
2013-09-18 00:47:00,77.0,62.1,30.05,SSW,202,3.8,-999.0,60,0.00,,,0.00,open2300 v1.10,2013-09-18 05:47:00,
2013-09-18 00:52:00,76.8,62.3,30.05,SSW,202,0.0,-999.0,61,0.00,,,0.00,open2300 v1.10,2013-09-18 05:52:00,
2013-09-18 00:57:00,76.8,62.3,30.05,SSW,202,0.0,-999.0,61,0.00,,,0.00,open2300 v1.10,2013-09-18 05:57:00,
2013-09-18 01:01:00,76.8,62.3,30.05,SW,225,0.0,-999.0,61,0.00,,,0.00,open2300 v1.10,2013-09-18 06:01:00,
2013-09-18 01:11:00,76.6,62.2,30.05,SSW,202,0.0,-999.0,61,0.00,,,0.00,open2300 v1.10,2013-09-18 06:11:00,
2013-09-18 01:21:00,76.6,62.2,30.04,SSW,202,0.0,-999.0,61,0.00,,,0.00,open2300 v1.10,2013-09-18 06:21:00,
2013-09-18 01:26:00,76.6,62.2,30.04,SSW,202,0.0,-999.0,61,0.00,,,0.00,open2300 v1.10,2013-09-18 06:26:00,
2013-09-18 01:32:00,76.6,62.2,30.04,SSW,202,0.0,-999.0,61,0.00,,,0.00,open2300 v1.10,2013-09-18 06:32:00,
2013-09-18 01:37:00,76.6,62.2,30.04,SSW,202,0.0,-999.0,61,0.00,,,0.00,open2300 v1.10,2013-09-18 06:37:00,
2013-09-18 01:47:00,76.3,61.8,30.04,SSW,202,0.0,-999.0,61,0.00,,,0.00,open2300 v1.10,2013-09-18 06:47:00,
2013-09-18 01:52:00,76.3,61.8,30.04,SSW,202,0.0,-999.0,61,0.00,,,0.00,open2300 v1.10,2013-09-18 06:52:00,
2013-09-18 01:57:00,76.3,61.8,30.04,SSW,202,0.0,-999.0,61,0.00,,,0.00,open2300 v1.10,2013-09-18 06:57:00,
2013-09-18 02:06:00,76.1,62.1,30.04,SSW,202,0.0,-999.0,62,0.00,,,0.00,open2300 v1.10,2013-09-18 07:06:00,
2013-09-18 02:11:00,76.1,62.1,30.04,SSW,202,0.0,-999.0,62,0.00,,,0.00,open2300 v1.10,2013-09-18 07:11:00,
2013-09-18 02:16:00,76.1,62.1,30.04,SSW,202,0.0,-999.0,62,0.00,,,0.00,open2300 v1.10,2013-09-18 07:16:00,
2013-09-18 02:21:00,76.1,62.1,30.04,SSW,202,0.0,-999.0,62,0.00,,,0.00,open2300 v1.10,2013-09-18 07:21:00,
2013-09-18 02:26:00,76.1,62.1,30.04,SSW,202,0.0,-999.0,62,0.00,,,0.00,open2300 v1.10,2013-09-18 07:26:00,
2013-09-18 02:31:00,76.1,62.1,30.03,SSW,202,0.0,-999.0,62,0.00,,,0.00,open2300 v1.10,2013-09-18 07:31:00,
2013-09-18 02:36:00,75.9,62.4,30.03,SSW,202,0.0,-999.0,63,0.00,,,0.00,open2300 v1.10,2013-09-18 07:36:00,
2013-09-18 02:42:00,75.9,62.4,30.03,SSW,202,0.0,-999.0,63,0.00,,,0.00,open2300 v1.10,2013-09-18 07:42:00,
2013-09-18 02:47:00,75.6,62.1,30.03,SSW,202,0.0,-999.0,63,0.00,,,0.00,open2300 v1.10,2013-09-18 07:47:00,
2013-09-18 02:52:00,75.4,61.9,30.03,SSW,202,0.0,-999.0,63,0.00,,,0.00,open2300 v1.10,2013-09-18 07:52:00,
2013-09-18 02:57:00,75.4,62.3,30.03,SSW,202,0.0,-999.0,64,0.00,,,0.00,open2300 v1.10,2013-09-18 07:57:00,
2013-09-18 03:06:00,75.0,62.0,30.03,SSW,202,0.0,-999.0,64,0.00,,,0.00,open2300 v1.10,2013-09-18 08:06:00,
2013-09-18 03:11:00,75.0,62.4,30.03,SSW,202,0.0,-999.0,65,0.00,,,0.00,open2300 v1.10,2013-09-18 08:11:00,
2013-09-18 03:16:00,75.0,62.4,30.03,SSW,202,0.0,-999.0,65,0.00,,,0.00,open2300 v1.10,2013-09-18 08:16:00,
2013-09-18 03:21:00,75.0,62.4,30.03,SSW,202,0.0,-999.0,65,0.00,,,0.00,open2300 v1.10,2013-09-18 08:21:00,
2013-09-18 03:26:00,75.0,62.4,30.03,SSW,202,0.0,-999.0,65,0.00,,,0.00,open2300 v1.10,2013-09-18 08:26:00,
2013-09-18 03:31:00,74.8,62.3,30.04,SSW,202,0.0,-999.0,65,0.00,,,0.00,open2300 v1.10,2013-09-18 08:31:00,
2013-09-18 03:37:00,74.8,62.3,30.04,SSW,202,0.0,-999.0,65,0.00,,,0.00,open2300 v1.10,2013-09-18 08:37:00,
2013-09-18 03:42:00,74.8,62.7,30.04,South,180,0.0,-999.0,66,0.00,,,0.00,open2300 v1.10,2013-09-18 08:42:00,
2013-09-18 03:47:00,75.0,62.8,30.04,SSE,157,0.0,-999.0,66,0.00,,,0.00,open2300 v1.10,2013-09-18 08:47:00,
2013-09-18 03:57:00,75.0,62.8,30.04,SE,135,0.0,-999.0,66,0.00,,,0.00,open2300 v1.10,2013-09-18 08:57:00,
2013-09-18 04:06:00,74.8,62.7,30.04,SE,135,0.0,-999.0,66,0.00,,,0.00,open2300 v1.10,2013-09-18 09:06:00,
2013-09-18 04:11:00,74.8,62.7,30.04,SE,135,0.0,-999.0,66,0.00,,,0.00,open2300 v1.10,2013-09-18 09:11:00,
2013-09-18 04:16:00,74.8,62.7,30.04,SE,135,0.0,-999.0,66,0.00,,,0.00,open2300 v1.10,2013-09-18 09:16:00,
2013-09-18 04:21:00,74.7,62.5,30.04,SE,135,0.0,-999.0,66,0.00,,,0.00,open2300 v1.10,2013-09-18 09:21:00,
2013-09-18 04:26:00,74.5,62.8,30.04,SE,135,0.0,-999.0,67,0.00,,,0.00,open2300 v1.10,2013-09-18 09:26:00,
2013-09-18 04:31:00,74.5,62.8,30.04,SE,135,0.0,-999.0,67,0.00,,,0.00,open2300 v1.10,2013-09-18 09:31:00,
2013-09-18 04:37:00,74.1,62.5,30.04,SE,135,0.9,-999.0,67,0.00,,,0.00,open2300 v1.10,2013-09-18 09:37:00,
2013-09-18 04:47:00,73.8,62.6,30.04,SE,135,0.0,-999.0,68,0.00,,,0.00,open2300 v1.10,2013-09-18 09:47:00,
2013-09-18 04:52:00,73.6,62.4,30.04,SSE,157,0.0,-999.0,68,0.00,,,0.00,open2300 v1.10,2013-09-18 09:52:00,
2013-09-18 04:57:00,73.6,62.4,30.04,South,180,0.0,-999.0,68,0.00,,,0.00,open2300 v1.10,2013-09-18 09:57:00,
2013-09-18 05:06:00,73.6,62.4,30.04,South,180,0.0,-999.0,68,0.00,,,0.00,open2300 v1.10,2013-09-18 10:06:00,
2013-09-18 05:11:00,73.6,62.4,30.04,SSE,157,0.0,-999.0,68,0.00,,,0.00,open2300 v1.10,2013-09-18 10:11:00,
2013-09-18 05:16:00,73.6,62.4,30.04,SSE,157,0.2,-999.0,68,0.00,,,0.00,open2300 v1.10,2013-09-18 10:16:00,
2013-09-18 05:21:00,73.6,62.4,30.04,South,180,0.0,-999.0,68,0.00,,,0.00,open2300 v1.10,2013-09-18 10:21:00,
2013-09-18 05:26:00,73.6,62.4,30.05,SSW,202,0.7,-999.0,68,0.00,,,0.00,open2300 v1.10,2013-09-18 10:26:00,
2013-09-18 05:32:00,73.6,62.4,30.05,South,180,0.0,-999.0,68,0.00,,,0.00,open2300 v1.10,2013-09-18 10:32:00,
2013-09-18 05:37:00,73.6,62.8,30.05,SW,225,4.2,-999.0,69,0.00,,,0.00,open2300 v1.10,2013-09-18 10:37:00,
2013-09-18 05:42:00,73.8,63.0,30.05,SSW,202,0.0,-999.0,69,0.00,,,0.00,open2300 v1.10,2013-09-18 10:42:00,
2013-09-18 05:47:00,73.8,63.0,30.05,SSW,202,4.9,-999.0,69,0.00,,,0.00,open2300 v1.10,2013-09-18 10:47:00,
2013-09-18 05:52:00,73.8,63.0,30.05,SSW,202,0.0,-999.0,69,0.00,,,0.00,open2300 v1.10,2013-09-18 10:52:00,
2013-09-18 06:01:00,73.6,63.3,30.05,SSE,157,0.0,-999.0,70,0.00,,,0.00,open2300 v1.10,2013-09-18 11:01:00,
2013-09-18 06:06:00,73.6,63.7,30.05,South,180,1.6,-999.0,71,0.00,,,0.00,open2300 v1.10,2013-09-18 11:06:00,
2013-09-18 06:11:00,73.6,63.7,30.05,South,180,0.0,-999.0,71,0.00,,,0.00,open2300 v1.10,2013-09-18 11:11:00,
2013-09-18 06:16:00,73.6,63.7,30.05,South,180,0.0,-999.0,71,0.00,,,0.00,open2300 v1.10,2013-09-18 11:16:00,
2013-09-18 06:21:00,73.6,64.1,30.05,South,180,0.0,-999.0,72,0.00,,,0.00,open2300 v1.10,2013-09-18 11:21:00,
2013-09-18 06:26:00,73.8,64.6,30.05,SSW,202,0.0,-999.0,73,0.00,,,0.00,open2300 v1.10,2013-09-18 11:26:00,
2013-09-18 06:31:00,73.8,64.6,30.05,South,180,0.0,-999.0,73,0.00,,,0.00,open2300 v1.10,2013-09-18 11:31:00,
2013-09-18 06:37:00,73.8,65.0,30.05,SSW,202,0.0,-999.0,74,0.00,,,0.00,open2300 v1.10,2013-09-18 11:37:00,
2013-09-18 06:47:00,73.6,64.8,30.05,SW,225,0.0,-999.0,74,0.00,,,0.00,open2300 v1.10,2013-09-18 11:47:00,
2013-09-18 06:52:00,73.6,64.8,30.06,South,180,0.0,-999.0,74,0.00,,,0.00,open2300 v1.10,2013-09-18 11:52:00,
2013-09-18 06:57:00,73.6,65.2,30.06,SSE,157,0.0,-999.0,75,0.00,,,0.00,open2300 v1.10,2013-09-18 11:57:00,
2013-09-18 07:06:00,73.6,65.2,30.06,South,180,0.0,-999.0,75,0.00,,,0.00,open2300 v1.10,2013-09-18 12:06:00,
2013-09-18 07:11:00,73.6,65.2,30.06,South,180,0.0,-999.0,75,0.00,,,0.00,open2300 v1.10,2013-09-18 12:11:00,
2013-09-18 07:16:00,73.6,65.2,30.06,South,180,0.0,-999.0,75,0.00,,,0.00,open2300 v1.10,2013-09-18 12:16:00,
2013-09-18 07:21:00,73.6,65.6,30.06,South,180,0.7,-999.0,76,0.00,,,0.00,open2300 v1.10,2013-09-18 12:21:00,
2013-09-18 07:26:00,73.8,65.8,30.07,South,180,0.0,-999.0,76,0.00,,,0.00,open2300 v1.10,2013-09-18 12:26:00,
2013-09-18 07:37:00,73.8,65.8,30.07,South,180,0.0,-999.0,76,0.00,,,0.00,open2300 v1.10,2013-09-18 12:37:00,
2013-09-18 07:47:00,73.9,65.9,30.08,South,180,0.0,-999.0,76,0.00,,,0.00,open2300 v1.10,2013-09-18 12:47:00,
2013-09-18 07:57:00,74.1,66.5,30.08,South,180,0.0,-999.0,77,0.00,,,0.00,open2300 v1.10,2013-09-18 12:57:00,
2013-09-18 08:06:00,74.5,66.8,30.08,SSE,157,0.0,-999.0,77,0.00,,,0.00,open2300 v1.10,2013-09-18 13:06:00,
2013-09-18 08:11:00,74.8,67.2,30.08,South,180,0.0,-999.0,77,0.00,,,0.00,open2300 v1.10,2013-09-18 13:11:00,
2013-09-18 08:16:00,74.8,66.8,30.09,South,180,0.0,-999.0,76,0.00,,,0.00,open2300 v1.10,2013-09-18 13:16:00,
2013-09-18 08:21:00,75.0,67.0,30.09,SSW,202,0.0,-999.0,76,0.00,,,0.00,open2300 v1.10,2013-09-18 13:21:00,
2013-09-18 08:26:00,75.4,67.3,30.09,SSW,202,0.0,-999.0,76,0.00,,,0.00,open2300 v1.10,2013-09-18 13:26:00,
2013-09-18 08:31:00,75.7,67.6,30.09,SSW,202,0.0,-999.0,76,0.00,,,0.00,open2300 v1.10,2013-09-18 13:31:00,
2013-09-18 08:36:00,75.9,67.8,30.10,South,180,0.0,-999.0,76,0.00,,,0.00,open2300 v1.10,2013-09-18 13:36:00,
2013-09-18 08:42:00,75.9,67.8,30.09,South,180,3.1,-999.0,76,0.00,,,0.00,open2300 v1.10,2013-09-18 13:42:00,
2013-09-18 08:47:00,76.3,68.1,30.09,South,180,0.0,-999.0,76,0.00,,,0.00,open2300 v1.10,2013-09-18 13:47:00,
2013-09-18 08:52:00,76.5,68.3,30.09,SSW,202,2.0,-999.0,76,0.00,,,0.00,open2300 v1.10,2013-09-18 13:52:00,
2013-09-18 08:57:00,76.6,68.1,30.09,SSW,202,0.0,-999.0,75,0.00,,,0.00,open2300 v1.10,2013-09-18 13:57:00,
2013-09-18 09:06:00,77.2,68.6,30.10,SW,225,1.8,-999.0,75,0.00,,,0.00,open2300 v1.10,2013-09-18 14:06:00,
2013-09-18 09:11:00,77.2,68.2,30.09,SW,225,0.0,-999.0,74,0.00,,,0.00,open2300 v1.10,2013-09-18 14:11:00,
2013-09-18 09:16:00,77.5,68.6,30.09,South,180,3.8,-999.0,74,0.00,,,0.00,open2300 v1.10,2013-09-18 14:16:00,
2013-09-18 09:21:00,77.7,68.7,30.09,SSW,202,0.0,-999.0,74,0.00,,,0.00,open2300 v1.10,2013-09-18 14:21:00,
2013-09-18 09:26:00,77.7,68.7,30.09,South,180,2.0,-999.0,74,0.00,,,0.00,open2300 v1.10,2013-09-18 14:26:00,
2013-09-18 09:32:00,77.9,68.9,30.09,South,180,0.0,-999.0,74,0.00,,,0.00,open2300 v1.10,2013-09-18 14:32:00,
2013-09-18 09:42:00,78.1,69.1,30.10,SE,135,5.1,-999.0,74,0.00,,,0.00,open2300 v1.10,2013-09-18 14:42:00,
2013-09-18 09:47:00,78.1,69.1,30.10,SSW,202,0.0,-999.0,74,0.00,,,0.00,open2300 v1.10,2013-09-18 14:47:00,
2013-09-18 09:52:00,78.1,69.1,30.10,SW,225,0.0,-999.0,74,0.00,,,0.00,open2300 v1.10,2013-09-18 14:52:00,
2013-09-18 09:57:00,78.3,69.2,30.10,SE,135,5.6,-999.0,74,0.00,,,0.00,open2300 v1.10,2013-09-18 14:57:00,
2013-09-18 10:06:00,78.6,69.6,30.10,South,180,0.0,-999.0,74,0.00,,,0.00,open2300 v1.10,2013-09-18 15:06:00,
2013-09-18 10:11:00,78.6,69.6,30.10,SSW,202,0.0,-999.0,74,0.00,,,0.00,open2300 v1.10,2013-09-18 15:11:00,
2013-09-18 10:16:00,79.0,69.9,30.10,South,180,1.6,-999.0,74,0.00,,,0.00,open2300 v1.10,2013-09-18 15:16:00,
2013-09-18 10:26:00,79.9,70.1,30.11,SW,225,8.1,-999.0,72,0.00,,,0.00,open2300 v1.10,2013-09-18 15:26:00,
2013-09-18 10:31:00,80.4,70.6,30.11,SSW,202,0.0,-999.0,72,0.00,,,0.00,open2300 v1.10,2013-09-18 15:31:00,
2013-09-18 10:36:00,80.8,70.5,30.11,SSW,202,0.0,-999.0,71,0.00,,,0.00,open2300 v1.10,2013-09-18 15:36:00,
2013-09-18 10:42:00,81.3,70.6,30.11,South,180,0.0,-999.0,70,0.00,,,0.00,open2300 v1.10,2013-09-18 15:42:00,
2013-09-18 10:47:00,81.7,70.5,30.11,South,180,0.7,-999.0,69,0.00,,,0.00,open2300 v1.10,2013-09-18 15:47:00,
2013-09-18 10:52:00,82.0,70.8,30.11,South,180,0.0,-999.0,69,0.00,,,0.00,open2300 v1.10,2013-09-18 15:52:00,
2013-09-18 10:57:00,82.2,71.0,30.11,South,180,0.0,-999.0,69,0.00,,,0.00,open2300 v1.10,2013-09-18 15:57:00,
2013-09-18 11:06:00,82.9,71.2,30.11,SE,135,3.8,-999.0,68,0.00,,,0.00,open2300 v1.10,2013-09-18 16:06:00,
2013-09-18 11:16:00,83.7,71.1,30.10,WSW,247,5.6,-999.0,66,0.00,,,0.00,open2300 v1.10,2013-09-18 16:16:00,
2013-09-18 11:27:00,84.4,71.3,30.10,SW,225,0.0,-999.0,65,0.00,,,0.00,open2300 v1.10,2013-09-18 16:27:00,
2013-09-18 11:37:00,84.9,71.4,30.10,South,180,0.0,-999.0,64,0.00,,,0.00,open2300 v1.10,2013-09-18 16:37:00,
2013-09-18 11:47:00,85.6,71.1,30.09,SW,225,0.0,-999.0,62,0.00,,,0.00,open2300 v1.10,2013-09-18 16:47:00,
2013-09-18 11:57:00,86.4,70.9,30.09,SSE,157,0.0,-999.0,60,0.00,,,0.00,open2300 v1.10,2013-09-18 16:57:00,
2013-09-18 12:06:00,86.7,70.7,30.08,SSW,202,5.4,-999.0,59,0.00,,,0.00,open2300 v1.10,2013-09-18 17:06:00,
2013-09-18 12:11:00,86.7,70.7,30.08,WSW,247,13.0,-999.0,59,0.00,,,0.00,open2300 v1.10,2013-09-18 17:11:00,
2013-09-18 12:16:00,86.9,71.1,30.08,WSW,247,0.0,-999.0,59,0.00,,,0.00,open2300 v1.10,2013-09-18 17:16:00,
2013-09-18 12:21:00,87.3,70.7,30.08,South,180,0.0,-999.0,58,0.00,,,0.00,open2300 v1.10,2013-09-18 17:21:00,
2013-09-18 12:26:00,87.4,70.9,30.08,SSW,202,0.0,-999.0,58,0.00,,,0.00,open2300 v1.10,2013-09-18 17:26:00,
2013-09-18 12:31:00,87.6,71.1,30.07,South,180,0.0,-999.0,58,0.00,,,0.00,open2300 v1.10,2013-09-18 17:31:00,
2013-09-18 12:37:00,88.0,70.9,30.07,SSW,202,0.0,-999.0,57,0.00,,,0.00,open2300 v1.10,2013-09-18 17:37:00,
2013-09-18 12:47:00,88.3,70.7,30.06,ESE,112,3.6,-999.0,56,0.00,,,0.00,open2300 v1.10,2013-09-18 17:47:00,
2013-09-18 12:52:00,88.5,70.8,30.06,North,0,0.0,-999.0,56,0.00,,,0.00,open2300 v1.10,2013-09-18 17:52:00,
2013-09-18 12:57:00,88.9,71.1,30.06,ESE,112,4.9,-999.0,56,0.00,,,0.00,open2300 v1.10,2013-09-18 17:57:00,
2013-09-18 13:06:00,89.8,71.4,30.06,SSW,202,5.8,-999.0,55,0.00,,,0.00,open2300 v1.10,2013-09-18 18:06:00,
2013-09-18 13:11:00,89.8,70.9,30.06,East,90,0.0,-999.0,54,0.00,,,0.00,open2300 v1.10,2013-09-18 18:11:00,
2013-09-18 13:16:00,90.0,71.0,30.06,SSW,202,2.0,-999.0,54,0.00,,,0.00,open2300 v1.10,2013-09-18 18:16:00,
2013-09-18 13:21:00,90.0,71.0,30.06,SSE,157,0.0,-999.0,54,0.00,,,0.00,open2300 v1.10,2013-09-18 18:21:00,
2013-09-18 13:26:00,90.0,71.0,30.05,SSE,157,0.0,-999.0,54,0.00,,,0.00,open2300 v1.10,2013-09-18 18:26:00,
2013-09-18 13:32:00,89.8,70.3,30.05,SSW,202,0.0,-999.0,53,0.00,,,0.00,open2300 v1.10,2013-09-18 18:32:00,
2013-09-18 13:42:00,90.1,70.1,30.04,SW,225,6.0,-999.0,52,0.00,,,0.00,open2300 v1.10,2013-09-18 18:42:00,
2013-09-18 13:47:00,90.5,70.4,30.04,SW,225,1.3,-999.0,52,0.00,,,0.00,open2300 v1.10,2013-09-18 18:47:00,
2013-09-18 13:52:00,90.9,70.8,30.04,SSE,157,1.3,-999.0,52,0.00,,,0.00,open2300 v1.10,2013-09-18 18:52:00,
2013-09-18 13:57:00,91.0,70.4,30.03,SSW,202,0.0,-999.0,51,0.00,,,0.00,open2300 v1.10,2013-09-18 18:57:00,
2013-09-18 14:11:00,91.4,69.5,30.04,South,180,7.4,-999.0,49,0.00,,,0.00,open2300 v1.10,2013-09-18 19:11:00,
2013-09-18 14:21:00,91.6,69.7,30.03,SSW,202,0.0,-999.0,49,0.00,,,0.00,open2300 v1.10,2013-09-18 19:21:00,
2013-09-18 14:26:00,91.6,69.7,30.03,SW,225,7.4,-999.0,49,0.00,,,0.00,open2300 v1.10,2013-09-18 19:26:00,
2013-09-18 14:31:00,91.8,69.8,30.03,South,180,3.4,-999.0,49,0.00,,,0.00,open2300 v1.10,2013-09-18 19:31:00,
2013-09-18 14:36:00,91.8,69.8,30.03,SSE,157,0.0,-999.0,49,0.00,,,0.00,open2300 v1.10,2013-09-18 19:36:00,
2013-09-18 14:42:00,91.8,70.5,30.02,SSW,202,0.0,-999.0,50,0.00,,,0.00,open2300 v1.10,2013-09-18 19:42:00,
2013-09-18 14:47:00,91.8,70.5,30.02,SSW,202,7.4,-999.0,50,0.00,,,0.00,open2300 v1.10,2013-09-18 19:47:00,
2013-09-18 14:52:00,91.6,70.3,30.02,West,270,1.6,-999.0,50,0.00,,,0.00,open2300 v1.10,2013-09-18 19:52:00,
2013-09-18 14:57:00,91.4,70.7,30.02,SW,225,6.9,-999.0,51,0.00,,,0.00,open2300 v1.10,2013-09-18 19:57:00,
2013-09-18 15:06:00,91.2,70.5,30.02,SSE,157,10.1,-999.0,51,0.00,,,0.00,open2300 v1.10,2013-09-18 20:06:00,
2013-09-18 15:11:00,91.2,70.5,30.01,SSW,202,0.0,-999.0,51,0.00,,,0.00,open2300 v1.10,2013-09-18 20:11:00,
2013-09-18 15:16:00,91.2,70.5,30.01,SSW,202,0.0,-999.0,51,0.00,,,0.00,open2300 v1.10,2013-09-18 20:16:00,
2013-09-18 15:21:00,91.2,70.0,30.01,SSW,202,0.0,-999.0,50,0.00,,,0.00,open2300 v1.10,2013-09-18 20:21:00,
2013-09-18 15:26:00,91.2,70.0,30.01,SSW,202,6.0,-999.0,50,0.00,,,0.00,open2300 v1.10,2013-09-18 20:26:00,
2013-09-18 15:32:00,91.6,69.7,30.01,SW,225,8.3,-999.0,49,0.00,,,0.00,open2300 v1.10,2013-09-18 20:32:00,
2013-09-18 15:37:00,91.6,70.3,30.01,SSW,202,4.7,-999.0,50,0.00,,,0.00,open2300 v1.10,2013-09-18 20:37:00,
2013-09-18 15:42:00,91.6,70.3,30.01,SSW,202,0.0,-999.0,50,0.00,,,0.00,open2300 v1.10,2013-09-18 20:42:00,
2013-09-18 15:47:00,91.2,69.3,30.01,WSW,247,7.2,-999.0,49,0.00,,,0.00,open2300 v1.10,2013-09-18 20:47:00,
2013-09-18 15:52:00,91.2,70.0,30.01,South,180,4.9,-999.0,50,0.00,,,0.00,open2300 v1.10,2013-09-18 20:52:00,
2013-09-18 15:57:00,91.4,69.3,30.00,SSW,202,6.5,-999.0,49,0.00,,,0.00,open2300 v1.10,2013-09-18 20:57:00,
2013-09-18 16:06:00,91.0,69.2,30.00,SSE,157,3.1,-999.0,49,0.00,,,0.00,open2300 v1.10,2013-09-18 21:06:00,
2013-09-18 16:11:00,90.7,68.9,30.00,SW,225,4.2,-999.0,49,0.00,,,0.00,open2300 v1.10,2013-09-18 21:11:00,
2013-09-18 16:16:00,90.7,69.5,30.00,SE,135,4.9,-999.0,50,0.00,,,0.00,open2300 v1.10,2013-09-18 21:16:00,
2013-09-18 16:21:00,90.9,70.2,30.00,South,180,0.0,-999.0,51,0.00,,,0.00,open2300 v1.10,2013-09-18 21:21:00,
2013-09-18 16:26:00,90.9,70.2,30.00,South,180,4.0,-999.0,51,0.00,,,0.00,open2300 v1.10,2013-09-18 21:26:00,
2013-09-18 16:31:00,91.0,69.2,30.00,South,180,0.0,-999.0,49,0.00,,,0.00,open2300 v1.10,2013-09-18 21:31:00,
2013-09-18 16:37:00,90.7,68.2,30.00,SE,135,3.8,-999.0,48,0.00,,,0.00,open2300 v1.10,2013-09-18 21:37:00,
2013-09-18 16:47:00,90.5,68.7,30.00,SSW,202,8.1,-999.0,49,0.00,,,0.00,open2300 v1.10,2013-09-18 21:47:00,
2013-09-18 16:52:00,90.5,68.7,30.01,SSE,157,0.0,-999.0,49,0.00,,,0.00,open2300 v1.10,2013-09-18 21:52:00,
2013-09-18 16:57:00,90.3,69.2,30.00,SSW,202,0.0,-999.0,50,0.00,,,0.00,open2300 v1.10,2013-09-18 21:57:00,
2013-09-18 17:06:00,89.6,70.2,30.00,SE,135,6.3,-999.0,53,0.00,,,0.00,open2300 v1.10,2013-09-18 22:06:00,
2013-09-18 17:11:00,89.4,69.5,30.01,SE,135,3.4,-999.0,52,0.00,,,0.00,open2300 v1.10,2013-09-18 22:11:00,
2013-09-18 17:16:00,89.4,69.5,30.00,SE,135,7.4,-999.0,52,0.00,,,0.00,open2300 v1.10,2013-09-18 22:16:00,
2013-09-18 17:21:00,89.2,68.8,30.01,SE,135,0.2,-999.0,51,0.00,,,0.00,open2300 v1.10,2013-09-18 22:21:00,
2013-09-18 17:31:00,89.2,69.3,30.01,South,180,0.9,-999.0,52,0.00,,,0.00,open2300 v1.10,2013-09-18 22:31:00,
2013-09-18 17:37:00,89.1,69.7,30.00,SE,135,0.0,-999.0,53,0.00,,,0.00,open2300 v1.10,2013-09-18 22:37:00,
2013-09-18 17:42:00,88.9,69.5,30.00,SW,225,10.1,-999.0,53,0.00,,,0.00,open2300 v1.10,2013-09-18 22:42:00,
2013-09-18 17:47:00,88.9,69.5,30.01,SSE,157,6.5,-999.0,53,0.00,,,0.00,open2300 v1.10,2013-09-18 22:47:00,
2013-09-18 17:52:00,88.9,69.5,30.01,SE,135,0.0,-999.0,53,0.00,,,0.00,open2300 v1.10,2013-09-18 22:52:00,
2013-09-18 17:57:00,88.5,69.2,30.01,SSE,157,0.4,-999.0,53,0.00,,,0.00,open2300 v1.10,2013-09-18 22:57:00,
2013-09-18 18:06:00,88.3,69.6,30.01,SE,135,0.7,-999.0,54,0.00,,,0.00,open2300 v1.10,2013-09-18 23:06:00,
2013-09-18 18:11:00,88.2,69.9,30.01,SSE,157,0.0,-999.0,55,0.00,,,0.00,open2300 v1.10,2013-09-18 23:11:00,
2013-09-18 18:16:00,88.0,69.8,30.01,SSW,202,8.9,-999.0,55,0.00,,,0.00,open2300 v1.10,2013-09-18 23:16:00,
2013-09-18 18:21:00,88.0,69.8,30.01,SSW,202,8.3,-999.0,55,0.00,,,0.00,open2300 v1.10,2013-09-18 23:21:00,
2013-09-18 18:26:00,87.6,69.4,30.01,SSW,202,0.0,-999.0,55,0.00,,,0.00,open2300 v1.10,2013-09-18 23:26:00,
2013-09-18 18:32:00,87.4,69.3,30.01,SW,225,8.3,-999.0,55,0.00,,,0.00,open2300 v1.10,2013-09-18 23:32:00,
2013-09-18 18:42:00,87.1,69.5,30.01,SSW,202,0.0,-999.0,56,0.00,,,0.00,open2300 v1.10,2013-09-18 23:42:00,
2013-09-18 18:47:00,86.7,69.6,30.01,SSW,202,4.0,-999.0,57,0.00,,,0.00,open2300 v1.10,2013-09-18 23:47:00,
2013-09-18 18:52:00,86.5,70.0,30.01,SW,225,0.0,-999.0,58,0.00,,,0.00,open2300 v1.10,2013-09-18 23:52:00,
2013-09-18 18:57:00,86.2,69.6,30.01,SW,225,6.9,-999.0,58,0.00,,,0.00,open2300 v1.10,2013-09-18 23:57:00,
2013-09-18 19:11:00,85.6,70.7,30.01,ESE,112,0.0,-999.0,61,0.00,,,0.00,open2300 v1.10,2013-09-19 00:11:00,
2013-09-18 19:21:00,84.7,70.3,30.02,SSW,202,3.8,-999.0,62,0.00,,,0.00,open2300 v1.10,2013-09-19 00:21:00,
2013-09-18 19:26:00,84.4,70.4,30.02,South,180,2.9,-999.0,63,0.00,,,0.00,open2300 v1.10,2013-09-19 00:26:00,
2013-09-18 19:31:00,83.8,70.3,30.03,SW,225,3.4,-999.0,64,0.00,,,0.00,open2300 v1.10,2013-09-19 00:31:00,
2013-09-18 19:37:00,83.5,70.0,30.03,SW,225,0.0,-999.0,64,0.00,,,0.00,open2300 v1.10,2013-09-19 00:37:00,
2013-09-18 19:47:00,82.8,69.7,30.03,SW,225,0.0,-999.0,65,0.00,,,0.00,open2300 v1.10,2013-09-19 00:47:00,
2013-09-18 19:52:00,82.6,70.0,30.03,SW,225,0.0,-999.0,66,0.00,,,0.00,open2300 v1.10,2013-09-19 00:52:00,
2013-09-18 19:57:00,82.6,70.0,30.03,SW,225,0.0,-999.0,66,0.00,,,0.00,open2300 v1.10,2013-09-19 00:57:00,
2013-09-18 20:06:00,82.0,69.9,30.03,SW,225,0.0,-999.0,67,0.00,,,0.00,open2300 v1.10,2013-09-19 01:06:00,
2013-09-18 20:11:00,82.0,70.4,30.03,SW,225,0.0,-999.0,68,0.00,,,0.00,open2300 v1.10,2013-09-19 01:11:00,
2013-09-18 20:16:00,81.7,70.1,30.04,SW,225,0.0,-999.0,68,0.00,,,0.00,open2300 v1.10,2013-09-19 01:16:00,
2013-09-18 20:21:00,81.3,69.7,30.03,SW,225,0.0,-999.0,68,0.00,,,0.00,open2300 v1.10,2013-09-19 01:21:00,
2013-09-18 20:26:00,81.3,69.7,30.04,SSW,202,0.0,-999.0,68,0.00,,,0.00,open2300 v1.10,2013-09-19 01:26:00,
2013-09-18 20:37:00,80.8,69.7,30.04,SW,225,0.0,-999.0,69,0.00,,,0.00,open2300 v1.10,2013-09-19 01:37:00,
2013-09-18 20:47:00,80.2,69.6,30.04,SW,225,0.0,-999.0,70,0.00,,,0.00,open2300 v1.10,2013-09-19 01:47:00,
2013-09-18 20:52:00,80.2,70.0,30.04,SW,225,0.0,-999.0,71,0.00,,,0.00,open2300 v1.10,2013-09-19 01:52:00,
2013-09-18 20:57:00,79.9,69.7,30.04,SW,225,0.0,-999.0,71,0.00,,,0.00,open2300 v1.10,2013-09-19 01:57:00,
2013-09-18 21:06:00,79.9,69.7,30.05,SSW,202,0.0,-999.0,71,0.00,,,0.00,open2300 v1.10,2013-09-19 02:06:00,
2013-09-18 21:11:00,79.7,69.9,30.05,SSW,202,0.0,-999.0,72,0.00,,,0.00,open2300 v1.10,2013-09-19 02:11:00,
2013-09-18 21:16:00,79.5,69.7,30.06,SW,225,0.0,-999.0,72,0.00,,,0.00,open2300 v1.10,2013-09-19 02:16:00,
2013-09-18 21:21:00,79.5,69.7,30.05,SSW,202,0.0,-999.0,72,0.00,,,0.00,open2300 v1.10,2013-09-19 02:21:00,
2013-09-18 21:26:00,79.3,69.5,30.05,SSW,202,0.0,-999.0,72,0.00,,,0.00,open2300 v1.10,2013-09-19 02:26:00,
2013-09-18 21:32:00,79.0,69.6,30.06,SSW,202,0.9,-999.0,73,0.00,,,0.00,open2300 v1.10,2013-09-19 02:32:00,
2013-09-18 21:37:00,79.0,69.6,30.05,SSW,202,2.2,-999.0,73,0.00,,,0.00,open2300 v1.10,2013-09-19 02:37:00,
2013-09-18 21:47:00,78.6,69.6,30.05,SSW,202,0.0,-999.0,74,0.00,,,0.00,open2300 v1.10,2013-09-19 02:47:00,
2013-09-18 21:52:00,78.6,69.6,30.06,SSW,202,0.0,-999.0,74,0.00,,,0.00,open2300 v1.10,2013-09-19 02:52:00,
2013-09-18 21:57:00,78.6,69.6,30.06,SW,225,0.0,-999.0,74,0.00,,,0.00,open2300 v1.10,2013-09-19 02:57:00,
2013-09-18 22:06:00,78.4,69.8,30.06,SSW,202,0.4,-999.0,75,0.00,,,0.00,open2300 v1.10,2013-09-19 03:06:00,
2013-09-18 22:11:00,78.3,69.6,30.05,SSW,202,0.0,-999.0,75,0.00,,,0.00,open2300 v1.10,2013-09-19 03:11:00,
2013-09-18 22:16:00,78.1,69.5,30.05,SW,225,0.0,-999.0,75,0.00,,,0.00,open2300 v1.10,2013-09-19 03:16:00,
2013-09-18 22:21:00,78.1,69.5,30.06,SW,225,0.0,-999.0,75,0.00,,,0.00,open2300 v1.10,2013-09-19 03:21:00,
2013-09-18 22:26:00,77.9,69.3,30.06,SW,225,0.0,-999.0,75,0.00,,,0.00,open2300 v1.10,2013-09-19 03:26:00,
2013-09-18 22:31:00,77.7,69.5,30.06,SW,225,0.0,-999.0,76,0.00,,,0.00,open2300 v1.10,2013-09-19 03:31:00,
2013-09-18 22:36:00,77.7,69.5,30.06,SW,225,0.0,-999.0,76,0.00,,,0.00,open2300 v1.10,2013-09-19 03:36:00,
2013-09-18 22:42:00,77.7,69.5,30.06,SW,225,0.0,-999.0,76,0.00,,,0.00,open2300 v1.10,2013-09-19 03:42:00,
2013-09-18 22:47:00,77.5,69.7,30.06,SSW,202,0.0,-999.0,77,0.00,,,0.00,open2300 v1.10,2013-09-19 03:47:00,
2013-09-18 22:52:00,77.4,69.6,30.06,SSW,202,0.0,-999.0,77,0.00,,,0.00,open2300 v1.10,2013-09-19 03:52:00,
2013-09-18 22:57:00,77.2,69.4,30.05,South,180,0.0,-999.0,77,0.00,,,0.00,open2300 v1.10,2013-09-19 03:57:00,
2013-09-18 23:01:00,77.2,69.4,30.05,SSW,202,3.6,-999.0,77,0.00,,,0.00,open2300 v1.10,2013-09-19 04:01:00,
2013-09-18 23:06:00,77.2,69.4,30.06,SSW,202,4.5,-999.0,77,0.00,,,0.00,open2300 v1.10,2013-09-19 04:06:00,
2013-09-18 23:11:00,77.2,69.4,30.06,SSW,202,0.0,-999.0,77,0.00,,,0.00,open2300 v1.10,2013-09-19 04:11:00,
2013-09-18 23:16:00,76.8,69.0,30.06,SSW,202,0.0,-999.0,77,0.00,,,0.00,open2300 v1.10,2013-09-19 04:16:00,
2013-09-18 23:21:00,76.8,69.4,30.06,South,180,0.0,-999.0,78,0.00,,,0.00,open2300 v1.10,2013-09-19 04:21:00,
2013-09-18 23:26:00,76.8,69.4,30.05,SSW,202,1.1,-999.0,78,0.00,,,0.00,open2300 v1.10,2013-09-19 04:26:00,
2013-09-18 23:31:00,76.8,69.4,30.05,SSW,202,0.0,-999.0,78,0.00,,,0.00,open2300 v1.10,2013-09-19 04:31:00,
2013-09-18 23:37:00,76.8,69.4,30.05,SSW,202,0.0,-999.0,78,0.00,,,0.00,open2300 v1.10,2013-09-19 04:37:00,
2013-09-18 23:42:00,76.6,69.2,30.06,SSW,202,0.0,-999.0,78,0.00,,,0.00,open2300 v1.10,2013-09-19 04:42:00,
2013-09-18 23:47:00,76.6,69.2,30.06,SW,225,0.0,-999.0,78,0.00,,,0.00,open2300 v1.10,2013-09-19 04:47:00,
2013-09-18 23:52:00,76.6,69.2,30.06,SW,225,0.0,-999.0,78,0.00,,,0.00,open2300 v1.10,2013-09-19 04:52:00,
2013-09-18 23:57:00,76.3,68.9,30.05,SSW,202,0.0,-999.0,78,0.00,,,0.00,open2300 v1.10,2013-09-19 04:57:00,